World > North America > United States > Massachusetts

South Barre, Massachusetts Regional Weather

Lat: 42.39N, Lon: 72.1W
Wx Zone: MAZ004
Feedback

South Barre, MA Regional Weather

Expires:202002270900;;162011
ASUS41 KOKX 270814
RWROKX

Regional Weather Roundup
National Weather Service New York NY
300 AM EST THU FEB 27 2020

Note: "FAIR" indicates few or no clouds below 12,000 feet with no
significant weather and/or obstructions to visibility.


CTZ002-004>006-009-010-012-RIZ004-006-007-MAZ004-011-015-270900-
Southern New England

 In CT
  
CITY           SKY/WX    TMP DP  RH WIND       PRES   REMARKS
Bradley Intl   RAIN      42  40  92 N9        29.51F FOG              
Hartford       RAIN      45  41  86 NE8       29.49F FOG              
Danbury        HVY RAIN  43  41  93 E9        29.42F FOG              
Wtrbury/Oxford RAIN      42  41  96 E15G28    29.44F                  
Norwalk Harbor   N/A     39 N/A N/A E16         N/A  WCI  30          
Bridgeport     HVY RAIN  45  42  89 E15       29.44F FOG              
Meriden        HVY RAIN  43  41  93 N8        29.46F FOG              
New Haven      HVY RAIN  48  45  89 NE7       29.45F FOG              
Chester        HVY RAIN  45  45 100 E13G21    29.46F                  
Groton         RAIN      44  44 100 E16       29.46F FOG              
Willimantic    RAIN      43  41  93 NE13      29.53F                  

 In RI
  
CITY           SKY/WX    TMP DP  RH WIND       PRES   REMARKS
Providence     HVY RAIN  43  42  97 NE12      29.59F FOG              
Block Island   LGT RAIN  41  41 100 E18G25    29.52F FOG              
Westerly       HVY RAIN  47  42  83 E18G28    29.54F                  
 
In MA
  
CITY           SKY/WX    TMP DP  RH WIND       PRES   REMARKS
Boston         DRZL/FOG  44  40  85 NE22G33   29.61F VSB 1            
Worcester      RAIN      39  38  96 E13G24    29.59F VSB 1/4 WCI  31  
Westfield      RAIN      42  39  89 NE10      29.53F                  
Provincetown   LGT RAIN  42  42 100 E16G24    29.63F FOG              
Nantucket      LGT RAIN  44  43  96 E20G28    29.58F FOG              
$$


SKY/WX - Weather  TMP - Temperature  DP - Dew Point  RH - Relative Humidity
WIND - Wind Direction/Speed PRES - Barometric Pressure VSB - Visibility
WCI - Wind Chill Index E13G22 Wind - East Wind 13 mph/Gusts of 22 mph
South Barre Weather Map
What is UTC time?